Back to catalog

STARLINK-32610

AliveCommunicationsVLEO
NORAD 61971·PAYLOAD·🇺🇸 United States

Launched Nov 14, 2024 from Cape Canaveral Space Force Station

Loading…

Next Passes (next 24 hours)

TLE

FreshSource: CelesTrak SupGP

Epoch: Sep 14, 2026, 15:30 UTC

1 61971C 24210N   26257.64631944  .00022088  00000+0  79943-3 0  2573
2 61971  43.0004 192.9200 0001708 264.6833 172.7869 15.27591159    14

Track STARLINK-32610 in real time with AllMySat

Download on the App Store